{"data":{"norad_id":53144,"intl_designator":"2022-083N","name":"STARLINK-4100","alt_names":[],"object_type":"PAYLOAD","status":"ACTIVE","operator":null,"country":"US","launch_date":"2022-07-17","launch_site_code":"AFETR","launch_vehicle":null,"mission":null,"orbit_class":"UNKNOWN","rcs_meters":null,"size_class":null,"mass_kg":null,"dimensions":null,"purposes":["comms"],"wikipedia_slug":null,"has_3d_model":false,"image_url":null,"decayed_at":null,"tle_current":{"epoch":"2026-05-24T19:53:18.294144Z","epoch_age_seconds":100222,"freshness":"FRESH","line1":"1 53144U 22083N   26144.82868396  .00010036  00000+0  64872-3 0  9998","line2":"2 53144  53.2124 192.3277 0002407  86.6862 273.4405 15.08785671212712","mean_motion":15.08785671,"eccentricity":0.0002407,"inclination_deg":53.2124,"raan_deg":192.3277,"arg_perigee_deg":86.6862,"mean_anomaly_deg":273.4405,"bstar":0.00064872,"rev_number":21271,"period_min":95.440991234069,"perigee_km":538.24428218351,"apogee_km":541.57462974741,"semimajor_km":6918.0464559655,"source":"CELESTRAK","updated_at":"2026-05-25T13:38:17.318185Z"}}}